星链-34324 (STARLINK-34324)

导读

STARLINK-34324是美国太空探索技术公司(SpaceX)于2025年6月5日发射的星链(Starlink)系列卫星。星链项目旨在低地球轨道构建全球卫星互联网星座,为全球缺乏传统基础设施的偏远地区提供高速、低延迟宽带互联网接入,这颗卫星将进一步扩充星链网络,提升系统服务覆盖与稳定性。

Basic Information
目录编号:
64207
目录名称:
STARLINK-34324
国际标识:
2025-117E
轨道中心:
EARTH
卫星名称:
星链-34324
卫星全名:
星链-34324 (STARLINK-34324)
卫星状态:
在轨 (已飞行379 天)
发射日期:
2025-05-31 UTC
国别 :
美国 (US)
星等 :
--
Orbit Information
数据来源 国际轨道数据 AOE轨道数据
星历时间 2026-06-14T00:17:58+0800
9小时前
查看轨道信息
2026-06-09T07:00:00+0800
5天前
查看轨道信息
半长轴 6853.309km 6853.304km
偏心率 0.0002527 0.0001074
轨道倾角 53.161° 53.157°
近地点辐角 91.439° 65.428°
升交点赤经 313.637° 335.570°
平近点角 268.690° 194.630°
近地点 473.44km 474.43km
远地点 476.904km 475.904km
周期 94.104分钟 94.104分钟
每日圈数 15.302147 15.302161
Detailed Information
固有亮度:
5
最大亮度:
2.5
卫星平台:
Starlink V1.0
覆盖范围:
全球
运营商:
太空探索技术公司
运营商所在国:
美国
制造商(研发单位):
太空探索技术公司
制造商所在国:
美国
使用方式:
暂无
Satellite Introduction
Starlink 计划是 SpaceX 推出的全球卫星互联网项目,通过发射低轨道卫星,为全球尤其是偏远地区提供高速、低延迟的互联网服务。自 2019 年起,Starlink 已部署数千颗卫星,旨在缩小全球数字鸿沟,推动互联网普及。该项目还为军事、航空等行业提供通信支持,带来广泛经济效益。
2D Orbit Map
3D Orbit Map
Orbit Altitude Analysis Chart
Orbit Inclination Analysis Chart
Orbit Comprehensive Analysis Chart
View Comprehensive Chart